{"data":{"norad_id":33412,"intl_designator":"2008-054A","name":"COSMO-SKYMED 3","alt_names":[],"object_type":"PAYLOAD","status":"ACTIVE","operator":null,"country":"IT","launch_date":"2008-10-25","launch_site_code":"AFWTR","launch_vehicle":null,"mission":null,"orbit_class":"UNKNOWN","rcs_meters":3.9248,"size_class":null,"mass_kg":null,"dimensions":null,"purposes":["earth_obs"],"wikipedia_slug":null,"has_3d_model":false,"image_url":null,"decayed_at":null,"tle_current":{"epoch":"2026-09-20T05:05:39.198336Z","epoch_age_seconds":39324,"freshness":"FRESH","line1":"1 33412U 08054A   26263.21225924  .00002120  00000+0  14396-3 0  9996","line2":"2 33412  97.8149 123.3327 0014460 308.8353  51.1583 15.07456215971252","mean_motion":15.07456215,"eccentricity":0.001446,"inclination_deg":97.8149,"raan_deg":123.3327,"arg_perigee_deg":308.8353,"mean_anomaly_deg":51.1583,"bstar":0.00014396,"rev_number":97125,"period_min":95.525162566662,"perigee_km":533.96692551695,"apogee_km":553.98567718446,"semimajor_km":6922.1133013507,"source":"CELESTRAK","updated_at":"2026-09-20T09:00:33.888875Z"}}}